Wind_Speed
36 38 39 40 42 41 41 38 33 24 21 26 36 36 37 42 41 37 35 33 23 25 28 31 33 34 33 36 39 41 27 33 32 29 25 27 25 26 25 23 21 19 20 19 17
38 40 41 38 35 28 28 27 26 24 23 22 21 27 35 42 44 36 41 28 25 26 26 34 36 33 33 36 38 38 31 30 26 25 25 26 24 26 23 23 24 23 22 23 21
40 37 30 21 25 25 26 23 20 20 22 24 24 25 26 36 47 49 29 26 26 29 32 31 33 33 32 38 40 38 31 28 30 32 27 24 22 23 21 19 23 24 24 26 26
32 28 24 25 24 24 20 17 17 17 18 22 25 23 25 31 38 39 39 30 30 32 33 32 34 35 34 39 40 35 39 29 31 29 28 25 25 25 22 20 23 23 24 27 28
30 27 22 26 25 23 17 13 13 13 14 16 19 20 24 28 43 25 37 34 33 34 36 35 35 37 36 34 38 40 28 36 28 29 27 27 27 27 26 25 21 25 25 26 28
29 26 24 26 25 20 19 11 8 9 8 11 13 19 24 27 42 26 20 31 37 36 36 34 36 34 30 28 35 34 28 26 31 25 31 27 27 28 29 23 23 26 26 28 27
28 30 26 23 21 19 14 10 9 9 6 10 15 17 21 24 30 38 23 29 35 36 35 33 32 34 28 29 28 20 23 30 25 30 30 29 33 37 29 23 26 27 27 28 30
29 29 25 23 20 19 12 7 9 9 11 16 18 16 22 17 26 51 29 26 28 32 29 27 26 30 20 25 17 23 15 17 31 31 30 29 26 21 25 31 29 29 29 30 32
28 27 22 17 13 9 7 8 9 8 12 14 14 15 12 19 32 41 32 21 23 30 28 28 24 29 30 19 15 21 17 25 15 24 28 31 20 22 26 20 19 23 28 31 32
32 27 23 19 13 12 9 8 12 9 11 8 11 10 9 32 28 24 28 22 25 31 31 32 31 28 24 26 27 25 24 20 21 19 22 25 25 25 20 21 22 26 26 25 28
31 26 22 21 16 16 12 7 8 10 8 5 2 5 14 32 19 23 36 26 26 33 36 36 26 37 29 25 12 15 21 13 15 24 24 23 22 24 22 22 23 25 26 25 29
30 27 21 17 15 1 3 3 4 4 3 6 8 13 25 27 24 23 40 26 44 38 30 34 36 27 21 21 13 13 16 14 16 17 19 15 20 19 18 22 25 24 24 25 27
29 24 17 12 19 9 6 5 4 5 9 7 15 21 22 21 23 25 22 19 32 33 30 29 26 22 24 20 16 13 15 16 10 15 13 12 12 15 20 21 22 22 22 23 24
41 32 25 16 14 15 15 15 14 12 8 11 11 17 15 13 26 28 21 21 27 27 27 25 21 27 24 24 18 15 17 14 11 8 6 7 4 10 11 13 14 14 16 17 20
31 35 30 30 33 26 24 16 12 5 3 7 11 11 12 14 27 16 11 23 24 25 31 11 27 31 28 26 22 13 17 13 10 8 5 7 6 6 9 10 12 14 16 16 15
28 26 25 20 18 19 17 15 12 7 9 10 12 21 15 22 16 13 11 19 23 20 9 12 23 29 26 31 29 19 15 10 8 5 4 9 8 9 13 15 15 14 14 13 12
27 21 22 19 12 16 17 16 13 10 6 11 22 20 16 18 17 12 16 9 10 14 16 17 16 19 17 20 23 24 16 5 3 3 2 8 7 2 15 19 17 15 13 10 9
28 21 19 13 13 18 20 22 15 16 20 18 16 22 19 19 17 12 13 16 10 18 13 6 7 16 28 21 12 18 9 2 3 4 3 6 7 5 16 15 18 14 10 9 10
26 22 18 11 17 19 16 16 7 14 15 16 13 15 16 14 12 14 12 14 16 11 5 6 6 9 12 10 19 16 8 8 4 2 1 5 6 7 19 14 14 10 8 9 12
20 19 17 12 6 15 19 16 11 21 18 9 4 9 9 13 11 9 7 8 11 9 7 9 9 11 13 11 12 12 12 5 5 4 4 5 4 6 16 18 11 8 10 13 16
19 19 15 9 5 12 24 21 18 14 8 3 2 10 10 12 12 10 7 10 8 10 5 10 5 9 11 10 11 11 11 6 6 2 2 2 3 11 19 10 3 7 13 17 21
15 20 15 6 5 17 17 16 13 7 3 3 5 9 12 13 11 9 7 4 11 9 7 7 7 9 9 11 12 14 12 10 3 3 3 1 2 19 15 1 8 12 16 20 22
12 14 14 6 4 10 13 11 8 3 6 3 5 8 6 16 6 10 12 6 11 10 7 7 4 7 4 7 13 16 19 17 15 5 5 2 3 15 14 7 17 18 19 22 24
10 9 8 7 5 5 7 7 4 1 3 4 5 4 10 11 4 12 10 8 9 12 8 8 6 4 2 2 5 11 16 21 18 8 7 9 2 12 10 13 16 18 20 22 21
9 7 6 4 4 3 5 6 4 3 4 2 3 3 8 9 7 6 13 10 9 9 11 10 6 6 6 5 3 4 8 17 24 25 9 5 10 11 10 13 14 17 16 18 20
8 6 5 4 2 5 4 3 2 4 7 8 6 7 8 5 5 4 9 11 10 14 15 15 4 5 7 9 10 14 14 13 14 20 25 20 15 9 7 12 13 14 16 19 19
11 11 9 4 2 3 3 4 7 3 3 5 7 7 7 7 6 5 6 7 3 5 13 16 10 7 3 5 7 13 17 22 20 19 13 15 4 7 10 9 13 16 18 16 15
Wind_Direction
313 308 304 298 293 288 284 280 271 267 268 266 247 241 235 226 236 220 230 229 225 221 216 211 214 213 213 208 209 212 213 220 220 220 223 229 228 228 225 227 224 221 216 208 198
314 307 300 295 289 285 283 277 270 261 258 260 264 250 233 226 222 227 220 220 210 211 207 209 209 206 209 207 208 207 214 220 222 222 218 234 229 231 227 225 231 228 221 215 211
313 311 309 297 290 277 282 287 278 265 258 256 258 261 242 226 218 222 226 219 211 207 202 207 204 203 209 207 207 206 216 215 226 229 229 231 228 229 220 220 227 232 228 218 216
321 318 315 300 289 292 292 285 280 275 270 268 262 256 257 231 220 229 230 213 200 206 201 202 202 199 209 208 210 210 212 212 225 225 228 228 224 225 225 223 228 232 227 223 220
323 319 309 307 306 303 290 288 286 284 282 273 266 253 241 237 207 210 217 206 201 203 201 197 198 199 207 206 211 211 220 220 223 221 228 231 231 230 229 229 227 227 223 218 223
324 320 307 300 299 302 297 271 270 280 288 281 270 251 239 233 206 177 182 201 200 198 199 193 200 199 204 212 211 218 216 220 222 220 229 234 236 234 230 228 228 228 225 225 223
328 321 313 310 303 303 292 256 260 273 287 292 263 257 235 225 205 195 177 194 192 200 199 188 198 196 204 209 215 208 220 223 220 227 232 236 244 241 238 234 232 232 230 230 231
325 323 316 305 303 292 269 248 254 268 277 288 274 254 247 216 187 192 170 173 178 192 198 186 196 197 199 206 211 209 212 209 228 225 227 232 242 246 250 243 241 240 236 233 234
342 334 331 323 303 314 294 256 241 269 293 287 253 249 235 192 182 201 196 157 176 184 182 177 188 195 204 192 181 196 214 211 226 224 228 232 242 240 240 237 234 243 242 239 237
341 336 327 312 299 302 303 283 247 281 301 278 254 228 208 170 163 171 190 174 185 176 173 180 181 188 187 187 196 199 204 208 208 214 222 231 237 245 244 247 241 244 247 246 238
349 344 336 326 309 280 272 293 259 286 272 241 272 115 163 176 181 167 182 171 174 181 177 183 196 186 193 192 201 198 197 199 211 226 231 238 242 244 246 252 253 249 244 241 244
3 0 352 348 337 19 285 264 281 262 220 183 172 138 153 172 192 181 173 192 178 172 175 182 199 191 190 186 187 181 193 193 209 224 225 244 251 258 257 253 250 250 247 244 244
15 17 15 28 39 79 87 77 87 115 109 142 156 133 149 171 194 165 166 142 167 171 182 189 205 195 193 189 191 192 196 189 196 206 223 252 278 251 245 246 248 248 245 244 244
33 29 28 37 58 68 75 88 98 92 85 117 103 135 154 168 180 146 162 154 169 178 187 202 201 197 200 196 185 185 193 188 188 180 213 188 185 221 223 229 231 229 231 233 237
30 36 46 61 74 81 97 84 57 66 131 58 66 107 151 141 158 183 100 176 174 167 190 185 186 192 195 187 182 190 185 193 199 212 234 235 223 204 196 193 198 205 215 220 224
11 18 19 30 48 43 38 42 38 41 39 72 92 122 137 138 141 126 115 174 176 193 197 142 167 185 179 189 195 193 187 188 183 187 232 199 209 188 183 187 182 186 194 204 215
6 17 22 16 35 57 59 64 54 44 50 67 110 122 128 126 146 130 108 99 115 123 132 132 123 162 165 173 178 196 157 140 174 189 248 197 208 190 200 195 193 195 199 204 217
19 19 25 28 72 90 94 76 58 67 88 106 116 130 112 137 133 157 114 110 133 121 107 91 98 134 148 148 166 163 183 219 190 180 143 193 225 195 188 185 197 200 212 235 255
23 21 33 51 96 107 105 85 82 111 109 115 110 112 126 142 140 145 128 112 127 141 110 108 114 133 166 164 162 178 208 204 104 121 213 197 222 186 188 182 188 204 229 253 267
22 26 36 50 79 121 106 88 112 117 108 110 92 152 149 169 152 131 140 149 133 141 131 146 124 164 175 169 185 180 198 182 201 185 224 191 231 188 183 175 186 218 249 271 283
24 32 40 42 61 111 99 107 118 116 105 39 141 155 167 159 168 157 143 167 166 165 149 151 131 163 172 200 201 197 195 197 176 191 274 191 146 167 157 143 188 256 274 288 292
26 38 41 47 64 94 96 119 126 123 21 37 125 148 165 156 165 179 184 179 179 169 170 180 138 149 196 214 212 211 217 208 211 200 219 296 127 176 171 224 308 302 302 299 299
355 6 26 60 130 122 112 106 114 93 31 21 147 181 157 178 172 185 186 156 184 190 180 170 157 124 161 222 218 220 219 218 223 233 215 216 144 184 197 300 307 308 306 301 299
359 359 14 49 137 159 161 153 150 134 16 48 139 177 184 172 183 200 195 180 186 201 204 199 182 181 194 168 194 209 222 220 219 209 213 222 182 183 202 285 290 298 297 301 301
343 360 10 359 51 116 177 187 236 267 254 242 192 193 183 200 220 226 213 208 207 207 209 207 206 225 246 253 242 222 223 220 220 221 215 231 211 206 260 275 290 300 303 309 310
280 311 345 351 4 110 123 146 194 254 245 229 217 188 181 215 225 251 222 215 226 225 219 218 218 245 273 264 257 254 245 235 229 233 241 245 257 249 246 284 293 300 308 309 309
281 262 269 274 213 195 188 170 130 65 79 166 181 192 214 228 228 245 195 203 240 234 221 217 232 246 252 250 275 275 249 236 233 236 241 234 207 262 278 298 303 300 302 309 317
Height
3063 3058 3054 3049 3044 3040 3037 3035 3035 3036 3036 3037 3040 3043 3046 3049 3052 3058 3058 3065 3074 3077 3082 3085 3091 3096 3102 3106 3110 3115 3122 3122 3126 3129 3135 3136 3142 3145 3148 3151 3153 3156 3158 3161 3162
3053 3047 3041 3036 3033 3030 3028 3026 3026 3027 3028 3029 3031 3032 3035 3040 3045 3047 3053 3060 3067 3070 3076 3080 3085 3091 3096 3101 3106 3110 3115 3119 3123 3125 3129 3133 3138 3141 3145 3148 3150 3152 3155 3158 3160
3041 3036 3031 3027 3024 3021 3021 3020 3020 3020 3021 3022 3024 3025 3027 3030 3035 3040 3049 3059 3063 3065 3070 3075 3082 3088 3092 3097 3100 3105 3109 3114 3114 3121 3126 3129 3133 3136 3140 3144 3146 3148 3151 3154 3157
3033 3029 3026 3022 3018 3016 3015 3014 3014 3014 3015 3015 3017 3020 3020 3023 3031 3038 3045 3053 3056 3060 3065 3070 3077 3083 3088 3091 3096 3101 3104 3107 3112 3118 3121 3125 3128 3132 3135 3139 3141 3143 3146 3149 3152
3028 3024 3020 3016 3014 3012 3010 3009 3009 3008 3009 3010 3010 3012 3014 3016 3022 3030 3038 3042 3049 3053 3058 3065 3071 3078 3082 3088 3092 3097 3099 3104 3108 3114 3117 3120 3123 3128 3131 3133 3136 3139 3142 3145 3147
3023 3019 3015 3011 3009 3007 3005 3004 3005 3006 3005 3005 3005 3005 3006 3008 3018 3024 3031 3036 3043 3048 3054 3061 3068 3076 3081 3084 3090 3094 3097 3101 3106 3111 3113 3116 3118 3122 3125 3128 3132 3134 3138 3140 3143
3019 3013 3009 3006 3003 3001 3001 3001 3001 3001 3001 3001 3001 3000 3000 3004 3010 3020 3026 3031 3038 3045 3052 3058 3066 3074 3077 3082 3086 3091 3096 3100 3102 3106 3110 3112 3113 3113 3121 3125 3126 3130 3133 3135 3138
3014 3009 3004 3000 2998 2997 2996 2998 2998 2998 2998 2997 2996 2995 2994 3000 3004 3015 3022 3028 3035 3044 3052 3059 3066 3073 3077 3080 3085 3090 3095 3097 3098 3101 3104 3109 3110 3109 3115 3119 3122 3124 3127 3130 3133
3010 3005 3000 2996 2995 2993 2994 2994 2994 2994 2994 2992 2992 2992 2994 2997 3003 3011 3014 3027 3035 3042 3050 3058 3064 3068 3073 3078 3083 3086 3088 3092 3094 3096 3101 3103 3105 3107 3110 3113 3117 3119 3121 3123 3127
3007 3001 2996 2993 2991 2991 2990 2991 2991 2991 2991 2989 2990 2994 2994 2998 3005 3010 3019 3026 3034 3041 3048 3055 3059 3065 3069 3074 3074 3077 3084 3088 3090 3093 3094 3097 3100 3101 3105 3107 3111 3114 3116 3117 3119
3004 2997 2992 2988 2981 2985 2986 2988 2991 2991 2988 2989 2990 2989 2993 3000 3006 3012 3022 3027 3033 3039 3041 3049 3051 3055 3063 3071 3074 3078 3083 3087 3087 3087 3092 3093 3094 3097 3100 3102 3105 3107 3109 3110 3110
3004 2997 2990 2986 2981 2981 2983 2986 2987 2988 2987 2988 2990 2991 2994 3000 3008 3013 3020 3022 3025 3033 3042 3049 3050 3057 3065 3069 3073 3077 3081 3084 3084 3085 3090 3090 3090 3094 3096 3097 3097 3100 3102 3103 3105
3006 2996 2989 2986 2982 2982 2984 2985 2985 2986 2988 2991 2991 2993 2999 3005 3008 3010 3020 3014 3030 3034 3041 3046 3050 3057 3062 3067 3072 3076 3080 3080 3082 3084 3087 3088 3089 3089 3090 3090 3092 3093 3095 3097 3098
3012 3003 2995 2990 2989 2986 2986 2986 2987 2989 2992 2997 2999 3002 3003 3005 3010 3015 3020 3025 3028 3037 3043 3047 3050 3055 3060 3065 3071 3075 3077 3078 3080 3084 3086 3087 3085 3084 3085 3086 3087 3089 3089 3090 3092
3019 3013 3007 2999 2994 2993 2993 2991 2992 2992 2992 3002 3002 3005 3006 3009 3014 3017 3018 3025 3029 3034 3045 3044 3046 3053 3059 3064 3069 3072 3074 3076 3079 3082 3083 3083 3086 3081 3082 3083 3083 3084 3084 3086 3087
3022 3016 3011 3009 3004 3001 2997 2995 2994 2996 3000 3008 3008 3010 3013 3013 3017 3020 3022 3027 3033 3038 3039 3041 3042 3049 3052 3059 3065 3069 3072 3076 3078 3080 3081 3079 3081 3079 3079 3080 3080 3081 3082 3083 3085
3024 3019 3015 3011 3007 3004 3002 3000 3000 3003 3012 3014 3014 3015 3016 3018 3022 3025 3028 3031 3034 3038 3041 3043 3045 3047 3053 3057 3060 3066 3072 3076 3079 3078 3074 3075 3078 3075 3074 3076 3078 3079 3080 3082 3083
3026 3020 3017 3014 3011 3008 3007 3007 3008 3014 3014 3018 3019 3020 3022 3025 3029 3031 3034 3035 3037 3039 3042 3047 3053 3051 3054 3059 3062 3065 3069 3068 3065 3067 3071 3075 3073 3071 3072 3073 3076 3077 3078 3079 3079
3030 3025 3020 3019 3015 3012 3013 3011 3018 3020 3022 3021 3023 3025 3027 3030 3032 3035 3036 3038 3039 3040 3044 3048 3054 3056 3057 3060 3064 3066 3068 3068 3068 3070 3072 3070 3069 3069 3069 3071 3073 3074 3075 3075 3075
3033 3030 3025 3023 3022 3017 3016 3018 3023 3024 3026 3027 3027 3028 3030 3032 3035 3037 3038 3040 3041 3044 3046 3049 3054 3057 3060 3062 3064 3065 3067 3070 3068 3069 3064 3064 3065 3064 3064 3068 3071 3072 3072 3072 3071
3035 3032 3029 3027 3026 3024 3019 3024 3027 3028 3029 3030 3029 3029 3031 3032 3034 3037 3041 3043 3044 3046 3048 3050 3052 3059 3059 3060 3061 3064 3064 3064 3064 3065 3062 3059 3061 3061 3064 3068 3069 3069 3068 3067 3066
3037 3035 3032 3030 3032 3029 3028 3029 3030 3032 3032 3031 3030 3031 3033 3034 3036 3038 3040 3041 3044 3046 3048 3049 3051 3056 3058 3058 3058 3059 3060 3061 3061 3064 3063 3064 3062 3062 3064 3065 3064 3064 3063 3062 3060
3038 3036 3035 3033 3033 3033 3033 3033 3033 3034 3033 3032 3032 3034 3035 3036 3039 3039 3040 3042 3043 3045 3047 3048 3050 3054 3058 3059 3057 3056 3057 3059 3060 3062 3062 3062 3061 3061 3062 3063 3061 3060 3059 3057 3055
3040 3038 3036 3035 3033 3034 3034 3034 3034 3034 3034 3033 3034 3034 3036 3038 3038 3039 3041 3042 3042 3044 3046 3048 3049 3050 3051 3051 3051 3052 3053 3056 3059 3060 3060 3060 3059 3060 3062 3061 3059 3057 3055 3052 3048
3039 3039 3037 3036 3033 3033 3034 3035 3035 3034 3035 3035 3035 3035 3036 3038 3039 3039 3040 3041 3043 3044 3045 3048 3048 3049 3049 3049 3049 3049 3050 3051 3052 3055 3056 3056 3056 3060 3059 3056 3055 3053 3051 3047 3043
3039 3038 3037 3035 3034 3033 3033 3033 3033 3032 3033 3034 3035 3035 3036 3037 3039 3038 3039 3040 3041 3042 3044 3045 3047 3048 3048 3047 3047 3046 3047 3047 3049 3050 3050 3054 3053 3054 3054 3053 3051 3049 3046 3043 3040
3035 3035 3035 3034 3033 3033 3033 3033 3033 3032 3032 3032 3033 3034 3035 3036 3037 3038 3038 3040 3040 3041 3042 3045 3046 3048 3048 3046 3046 3045 3041 3042 3044 3046 3049 3049 3052 3052 3051 3049 3047 3046 3043 3039 3035